Time,TemperatureF,DewpointF,PressureIn,WindDirection,WindDirectionDegrees,WindSpeedMPH,WindSpeedGustMPH,Humidity,HourlyPrecipIn,Conditions,Clouds,dailyrainin,SolarRadiationWatts/m^2,SoftwareType,DateUTC
2013-09-26 00:02:00,51.9,49.9,29.98,SE,126,0.0,0.0,93,0.00,CLR,,0.00,0.0,WeatherDisplay:10.37,2013-09-26 05:02:00,
2013-09-26 00:07:00,51.7,49.7,29.98,SE,126,0.0,0.0,93,0.00,CLR,,0.00,0.0,WeatherDisplay:10.37,2013-09-26 05:07:00,
2013-09-26 00:12:00,51.7,49.7,29.98,SE,126,0.0,0.0,93,0.00,CLR,,0.00,0.0,WeatherDisplay:10.37,2013-09-26 05:12:00,
2013-09-26 00:17:00,51.6,49.6,29.99,SE,126,0.0,0.0,93,0.00,CLR,,0.00,0.0,WeatherDisplay:10.37,2013-09-26 05:17:00,
2013-09-26 00:22:00,51.6,49.6,29.99,SE,126,0.0,0.0,93,0.00,CLR,,0.00,0.0,WeatherDisplay:10.37,2013-09-26 05:22:00,
2013-09-26 00:27:00,51.6,49.6,29.99,SE,126,0.0,0.0,93,0.00,CLR,,0.00,0.0,WeatherDisplay:10.37,2013-09-26 05:27:00,
2013-09-26 00:32:00,51.4,49.4,29.99,SE,126,0.0,0.0,93,0.00,CLR,,0.00,0.0,WeatherDisplay:10.37,2013-09-26 05:32:00,
2013-09-26 00:37:00,51.3,49.3,29.99,SE,126,0.0,0.0,93,0.00,CLR,,0.00,0.0,WeatherDisplay:10.37,2013-09-26 05:37:00,
2013-09-26 00:42:00,51.3,49.6,29.99,SE,126,0.0,0.0,94,0.00,CLR,,0.00,0.0,WeatherDisplay:10.37,2013-09-26 05:42:00,
2013-09-26 00:47:00,51.3,49.6,29.99,SE,126,0.0,0.0,94,0.00,CLR,,0.00,0.0,WeatherDisplay:10.37,2013-09-26 05:47:00,
2013-09-26 00:52:00,51.1,49.4,29.99,SE,126,0.0,0.0,94,0.00,CLR,,0.00,0.0,WeatherDisplay:10.37,2013-09-26 05:52:00,
2013-09-26 00:57:00,51.0,49.3,29.99,SE,126,0.0,0.0,94,0.00,CLR,,0.00,0.0,WeatherDisplay:10.37,2013-09-26 05:57:00,
2013-09-26 01:02:00,50.8,49.1,29.99,SE,126,0.0,0.0,94,0.00,CLR,,0.00,0.0,WeatherDisplay:10.37,2013-09-26 06:02:00,
2013-09-26 01:07:00,50.7,49.0,29.99,SE,126,0.0,0.0,94,0.00,CLR,,0.00,0.0,WeatherDisplay:10.37,2013-09-26 06:07:00,
2013-09-26 01:12:00,50.7,49.0,29.99,SE,126,0.0,0.0,94,0.00,CLR,,0.00,0.0,WeatherDisplay:10.37,2013-09-26 06:12:00,
2013-09-26 01:17:00,50.5,48.8,30.00,SE,126,0.0,0.0,94,0.00,CLR,,0.00,0.0,WeatherDisplay:10.37,2013-09-26 06:17:00,
2013-09-26 01:22:00,50.2,48.5,30.00,SE,126,0.0,0.0,94,0.00,CLR,,0.00,0.0,WeatherDisplay:10.37,2013-09-26 06:22:00,
2013-09-26 01:27:00,50.1,48.4,30.00,SE,126,0.0,0.0,94,0.00,CLR,,0.00,0.0,WeatherDisplay:10.37,2013-09-26 06:27:00,
2013-09-26 01:32:00,49.9,48.2,30.00,SE,126,0.0,0.0,94,0.00,CLR,,0.00,0.0,WeatherDisplay:10.37,2013-09-26 06:32:00,
2013-09-26 01:37:00,49.8,48.1,30.00,SE,126,0.0,0.0,94,0.00,CLR,,0.00,0.0,WeatherDisplay:10.37,2013-09-26 06:37:00,
2013-09-26 01:42:00,49.5,47.8,30.00,SE,126,0.0,0.0,94,0.00,CLR,,0.00,0.0,WeatherDisplay:10.37,2013-09-26 06:42:00,
2013-09-26 01:47:00,49.4,47.7,30.00,SE,126,0.0,0.0,94,0.00,CLR,,0.00,0.0,WeatherDisplay:10.37,2013-09-26 06:47:00,
2013-09-26 01:52:00,49.2,47.5,30.00,SE,126,0.0,0.0,94,0.00,CLR,,0.00,0.0,WeatherDisplay:10.37,2013-09-26 06:52:00,
2013-09-26 01:57:00,49.1,47.4,30.00,SE,126,0.0,0.0,94,0.00,CLR,,0.00,0.0,WeatherDisplay:10.37,2013-09-26 06:57:00,
2013-09-26 02:02:00,48.9,47.2,30.01,SE,126,0.0,0.0,94,0.00,CLR,,0.00,0.0,WeatherDisplay:10.37,2013-09-26 07:02:00,
2013-09-26 02:07:00,48.8,47.4,30.01,SE,126,0.0,0.0,95,0.00,CLR,,0.00,0.0,WeatherDisplay:10.37,2013-09-26 07:07:00,
2013-09-26 02:12:00,48.6,47.2,30.01,SE,126,0.0,0.0,95,0.00,CLR,,0.00,0.0,WeatherDisplay:10.37,2013-09-26 07:12:00,
2013-09-26 02:17:00,48.5,47.1,30.01,SE,126,0.0,0.0,95,0.00,CLR,,0.00,0.0,WeatherDisplay:10.37,2013-09-26 07:17:00,
2013-09-26 02:22:00,48.3,46.9,30.01,SE,126,0.0,0.0,95,0.00,CLR,,0.00,0.0,WeatherDisplay:10.37,2013-09-26 07:22:00,
2013-09-26 02:27:00,48.3,46.9,30.01,SE,126,0.0,0.0,95,0.00,CLR,,0.00,0.0,WeatherDisplay:10.37,2013-09-26 07:27:00,
2013-09-26 02:32:00,48.2,46.8,30.02,SE,126,0.0,0.0,95,0.00,CLR,,0.00,0.0,WeatherDisplay:10.37,2013-09-26 07:32:00,
2013-09-26 02:37:00,48.2,46.8,30.02,SE,126,0.0,0.0,95,0.00,CLR,,0.00,0.0,WeatherDisplay:10.37,2013-09-26 07:37:00,
2013-09-26 02:42:00,48.6,47.5,30.02,SE,126,0.0,0.0,96,0.00,CLR,,0.00,0.0,WeatherDisplay:10.37,2013-09-26 07:42:00,
2013-09-26 02:47:00,48.5,47.1,30.01,SE,126,0.0,0.0,95,0.00,CLR,,0.00,0.0,WeatherDisplay:10.37,2013-09-26 07:47:00,
2013-09-26 02:52:00,48.3,46.9,30.01,SE,126,0.0,0.0,95,0.00,CLR,,0.00,0.0,WeatherDisplay:10.37,2013-09-26 07:52:00,
2013-09-26 02:57:00,48.3,47.2,30.01,SE,126,0.0,0.0,96,0.00,CLR,,0.00,0.0,WeatherDisplay:10.37,2013-09-26 07:57:00,
2013-09-26 03:02:00,48.3,47.2,30.01,SE,126,0.0,0.0,96,0.00,CLR,,0.00,0.0,WeatherDisplay:10.37,2013-09-26 08:02:00,
2013-09-26 03:07:00,48.3,47.2,30.01,SE,126,0.0,0.0,96,0.00,CLR,,0.00,0.0,WeatherDisplay:10.37,2013-09-26 08:07:00,
2013-09-26 03:12:00,48.3,47.2,30.01,SE,126,0.0,0.0,96,0.00,CLR,,0.00,0.0,WeatherDisplay:10.37,2013-09-26 08:12:00,
2013-09-26 03:17:00,48.2,47.1,30.01,SE,126,0.0,0.0,96,0.00,CLR,,0.00,0.0,WeatherDisplay:10.37,2013-09-26 08:17:00,
2013-09-26 03:22:00,48.0,46.9,30.01,SE,126,0.0,0.0,96,0.00,CLR,,0.00,0.0,WeatherDisplay:10.37,2013-09-26 08:22:00,
2013-09-26 03:27:00,48.0,46.9,30.01,SE,126,0.0,0.0,96,0.00,CLR,,0.00,0.0,WeatherDisplay:10.37,2013-09-26 08:27:00,
2013-09-26 03:32:00,47.9,46.8,30.02,SE,126,0.0,0.0,96,0.00,CLR,,0.00,0.0,WeatherDisplay:10.37,2013-09-26 08:32:00,
2013-09-26 03:37:00,47.7,46.6,30.02,SE,126,0.0,0.0,96,0.00,CLR,,0.00,0.0,WeatherDisplay:10.37,2013-09-26 08:37:00,
2013-09-26 03:42:00,47.6,46.5,30.02,SE,126,0.0,0.0,96,0.00,CLR,,0.00,0.0,WeatherDisplay:10.37,2013-09-26 08:42:00,
2013-09-26 03:47:00,47.6,46.5,30.02,SE,126,0.0,0.0,96,0.00,CLR,,0.00,0.0,WeatherDisplay:10.37,2013-09-26 08:47:00,
2013-09-26 03:52:00,47.4,46.3,30.02,SE,126,0.0,0.0,96,0.00,CLR,,0.00,0.0,WeatherDisplay:10.37,2013-09-26 08:52:00,
2013-09-26 03:57:00,47.4,46.3,30.02,SE,126,0.0,0.0,96,0.00,CLR,,0.00,0.0,WeatherDisplay:10.37,2013-09-26 08:57:00,
2013-09-26 04:02:00,47.3,46.2,30.02,SE,126,0.0,0.0,96,0.00,CLR,,0.00,0.0,WeatherDisplay:10.37,2013-09-26 09:02:00,
2013-09-26 04:07:00,47.3,46.2,30.02,SE,126,0.0,0.0,96,0.00,CLR,,0.00,0.0,WeatherDisplay:10.37,2013-09-26 09:07:00,
2013-09-26 04:12:00,47.1,46.0,30.02,SE,126,0.0,0.0,96,0.00,CLR,,0.00,0.0,WeatherDisplay:10.37,2013-09-26 09:12:00,
2013-09-26 04:17:00,47.1,46.0,30.02,SE,126,0.0,0.0,96,0.00,CLR,,0.00,0.0,WeatherDisplay:10.37,2013-09-26 09:17:00,
2013-09-26 04:22:00,46.8,45.7,30.02,SE,126,0.0,0.0,96,0.00,CLR,,0.00,0.0,WeatherDisplay:10.37,2013-09-26 09:22:00,
2013-09-26 04:27:00,46.7,45.6,30.02,SE,126,0.0,0.0,96,0.00,CLR,,0.00,0.0,WeatherDisplay:10.37,2013-09-26 09:27:00,
2013-09-26 04:32:00,46.5,45.4,30.02,SE,126,0.0,0.0,96,0.00,CLR,,0.00,0.0,WeatherDisplay:10.37,2013-09-26 09:32:00,
2013-09-26 04:37:00,46.4,45.3,30.02,SE,126,0.0,0.0,96,0.00,CLR,,0.00,0.0,WeatherDisplay:10.37,2013-09-26 09:37:00,
2013-09-26 04:42:00,46.4,45.3,30.02,SE,126,0.0,0.0,96,0.00,CLR,,0.00,0.0,WeatherDisplay:10.37,2013-09-26 09:42:00,
2013-09-26 04:47:00,46.5,45.4,30.03,SE,126,0.0,0.0,96,0.00,CLR,,0.00,0.0,WeatherDisplay:10.37,2013-09-26 09:47:00,
2013-09-26 04:52:00,46.5,45.4,30.03,SE,126,0.0,0.0,96,0.00,CLR,,0.00,0.0,WeatherDisplay:10.37,2013-09-26 09:52:00,
2013-09-26 04:57:00,46.7,45.9,30.03,SE,126,0.0,0.0,97,0.00,CLR,,0.00,0.0,WeatherDisplay:10.37,2013-09-26 09:57:00,
2013-09-26 05:02:00,46.8,45.7,30.03,SE,126,0.0,0.0,96,0.00,CLR,,0.00,0.0,WeatherDisplay:10.37,2013-09-26 10:02:00,
2013-09-26 05:07:00,46.8,45.7,30.03,SE,126,0.0,0.0,96,0.00,CLR,,0.00,0.0,WeatherDisplay:10.37,2013-09-26 10:07:00,
2013-09-26 05:12:00,46.7,45.6,30.03,SE,126,0.0,0.0,96,0.00,CLR,,0.00,0.0,WeatherDisplay:10.37,2013-09-26 10:12:00,
2013-09-26 05:17:00,46.7,45.6,30.03,SE,126,0.0,0.0,96,0.00,CLR,,0.00,0.0,WeatherDisplay:10.37,2013-09-26 10:17:00,
2013-09-26 05:22:00,46.4,45.3,30.03,SE,126,0.0,0.0,96,0.00,CLR,,0.00,0.0,WeatherDisplay:10.37,2013-09-26 10:22:00,
2013-09-26 05:27:00,46.2,45.1,30.03,SE,126,0.0,0.0,96,0.00,CLR,,0.00,0.0,WeatherDisplay:10.37,2013-09-26 10:27:00,
2013-09-26 05:32:00,46.1,45.3,30.03,SE,126,0.0,0.0,97,0.00,CLR,,0.00,0.0,WeatherDisplay:10.37,2013-09-26 10:32:00,
2013-09-26 05:37:00,46.1,45.3,30.03,SE,126,0.0,0.0,97,0.00,CLR,,0.00,0.0,WeatherDisplay:10.37,2013-09-26 10:37:00,
2013-09-26 05:42:00,46.1,45.3,30.06,SE,126,0.0,0.0,97,0.00,SCT,,0.00,0.0,WeatherDisplay:10.37,2013-09-26 10:42:00,
2013-09-26 05:47:00,46.1,45.3,30.06,SE,126,0.0,0.0,97,0.00,SCT,,0.00,0.0,WeatherDisplay:10.37,2013-09-26 10:47:00,
2013-09-26 05:52:00,46.0,45.2,30.06,SE,126,0.0,0.0,97,0.00,SCT,,0.00,0.0,WeatherDisplay:10.37,2013-09-26 10:52:00,
2013-09-26 05:57:00,46.0,45.2,30.06,SE,126,0.0,0.0,97,0.00,SCT,,0.00,0.0,WeatherDisplay:10.37,2013-09-26 10:57:00,
2013-09-26 06:02:00,46.0,45.2,30.06,SE,126,0.0,0.0,97,0.00,SCT,,0.00,0.0,WeatherDisplay:10.37,2013-09-26 11:02:00,
2013-09-26 06:07:00,45.8,45.0,30.06,SE,126,0.0,0.0,97,0.00,SCT,,0.00,0.0,WeatherDisplay:10.37,2013-09-26 11:07:00,
2013-09-26 06:12:00,46.0,45.2,30.06,SE,126,0.0,0.0,97,0.00,BKN,,0.00,0.0,WeatherDisplay:10.37,2013-09-26 11:12:00,
2013-09-26 06:17:00,46.0,45.2,30.06,SE,126,0.0,0.0,97,0.00,BKN,,0.00,0.0,WeatherDisplay:10.37,2013-09-26 11:17:00,
2013-09-26 06:22:00,46.0,45.2,30.06,SE,126,0.0,0.0,97,0.00,SCT,,0.00,0.0,WeatherDisplay:10.37,2013-09-26 11:22:00,
2013-09-26 06:27:00,46.1,45.3,30.06,SE,126,0.0,0.0,97,0.00,SCT,,0.00,0.0,WeatherDisplay:10.37,2013-09-26 11:27:00,
2013-09-26 06:32:00,46.0,45.2,30.06,SE,126,0.0,0.0,97,0.00,SCT,,0.00,0.0,WeatherDisplay:10.37,2013-09-26 11:32:00,
2013-09-26 06:37:00,45.8,45.0,30.06,SE,126,0.0,0.0,97,0.00,SCT,,0.00,0.0,WeatherDisplay:10.37,2013-09-26 11:37:00,
2013-09-26 06:42:00,45.7,44.9,30.06,SE,126,0.0,1.2,97,0.00,CLR,,0.00,0.0,WeatherDisplay:10.37,2013-09-26 11:42:00,
2013-09-26 06:47:00,45.7,44.9,30.06,SE,126,0.0,0.0,97,0.00,CLR,,0.00,0.0,WeatherDisplay:10.37,2013-09-26 11:47:00,
2013-09-26 06:52:00,45.7,44.9,30.06,SE,126,0.0,0.0,97,0.00,CLR,,0.00,0.0,WeatherDisplay:10.37,2013-09-26 11:52:00,
2013-09-26 06:57:00,45.7,44.9,30.06,SE,126,0.0,0.0,97,0.00,CLR,,0.00,0.0,WeatherDisplay:10.37,2013-09-26 11:57:00,
2013-09-26 07:02:00,45.5,44.7,30.06,SE,126,0.0,0.0,97,0.00,CLR,,0.00,7.0,WeatherDisplay:10.37,2013-09-26 12:02:00,
2013-09-26 07:07:00,45.5,44.7,30.06,SE,126,0.0,0.0,97,0.00,CLR,,0.00,9.0,WeatherDisplay:10.37,2013-09-26 12:07:00,
2013-09-26 07:12:00,45.5,44.7,30.06,SE,126,0.0,0.0,97,0.00,CLR,,0.00,12.0,WeatherDisplay:10.37,2013-09-26 12:12:00,
2013-09-26 07:17:00,45.5,45.0,30.06,SE,126,0.0,0.0,98,0.00,CLR,,0.00,16.0,WeatherDisplay:10.37,2013-09-26 12:17:00,
2013-09-26 07:22:00,45.5,44.7,30.06,SE,126,0.0,0.0,97,0.00,CLR,,0.00,19.0,WeatherDisplay:10.37,2013-09-26 12:22:00,
2013-09-26 07:27:00,45.7,45.2,30.06,SE,126,0.0,0.0,98,0.00,CLR,,0.00,25.0,WeatherDisplay:10.37,2013-09-26 12:27:00,
2013-09-26 07:32:00,45.7,45.2,30.06,SE,126,0.0,0.0,98,0.00,CLR,,0.00,32.0,WeatherDisplay:10.37,2013-09-26 12:32:00,
2013-09-26 07:37:00,45.8,45.3,30.06,SE,126,0.0,0.0,98,0.00,CLR,,0.00,37.0,WeatherDisplay:10.37,2013-09-26 12:37:00,
2013-09-26 07:42:00,46.0,45.5,30.06,SE,126,0.0,0.0,98,0.00,CLR,,0.00,37.0,WeatherDisplay:10.37,2013-09-26 12:42:00,
2013-09-26 07:47:00,46.0,45.5,30.07,SE,126,0.0,0.0,98,0.00,CLR,,0.00,40.0,WeatherDisplay:10.37,2013-09-26 12:47:00,
2013-09-26 07:52:00,46.2,45.7,30.07,SE,126,0.0,0.0,98,0.00,CLR,,0.00,49.0,WeatherDisplay:10.37,2013-09-26 12:52:00,
2013-09-26 07:57:00,46.5,46.0,30.07,SE,126,0.0,0.0,98,0.00,CLR,,0.00,49.0,WeatherDisplay:10.37,2013-09-26 12:57:00,
2013-09-26 08:02:00,46.7,46.2,30.07,SE,126,0.0,0.0,98,0.00,CLR,,0.00,54.0,WeatherDisplay:10.37,2013-09-26 13:02:00,
2013-09-26 08:07:00,47.0,46.5,30.07,SE,126,0.0,0.0,98,0.00,CLR,,0.00,58.0,WeatherDisplay:10.37,2013-09-26 13:07:00,
2013-09-26 08:12:00,47.3,46.8,30.07,SE,126,0.0,0.0,98,0.00,CLR,,0.00,60.0,WeatherDisplay:10.37,2013-09-26 13:12:00,
2013-09-26 08:17:00,47.6,47.3,30.07,SE,126,0.0,0.0,99,0.00,CLR,,0.00,67.0,WeatherDisplay:10.37,2013-09-26 13:17:00,
2013-09-26 08:22:00,48.0,47.7,30.07,SE,126,0.0,0.0,99,0.00,CLR,,0.00,76.0,WeatherDisplay:10.37,2013-09-26 13:22:00,
2013-09-26 08:27:00,48.3,47.8,30.07,SE,126,0.0,0.0,98,0.00,CLR,,0.00,86.0,WeatherDisplay:10.37,2013-09-26 13:27:00,
2013-09-26 08:32:00,48.5,48.2,30.07,SE,126,0.0,0.0,99,0.00,CLR,,0.00,91.0,WeatherDisplay:10.37,2013-09-26 13:32:00,
2013-09-26 08:37:00,48.9,48.6,30.07,SE,126,0.0,0.0,99,0.00,CLR,,0.00,90.0,WeatherDisplay:10.37,2013-09-26 13:37:00,
2013-09-26 08:42:00,49.2,48.9,30.07,SE,126,0.0,0.0,99,0.00,CLR,,0.00,102.0,WeatherDisplay:10.37,2013-09-26 13:42:00,
2013-09-26 08:47:00,49.6,49.3,30.07,SE,126,0.0,0.0,99,0.00,CLR,,0.00,111.0,WeatherDisplay:10.37,2013-09-26 13:47:00,
2013-09-26 08:52:00,49.9,49.6,30.07,SE,126,0.0,0.0,99,0.00,CLR,,0.00,97.0,WeatherDisplay:10.37,2013-09-26 13:52:00,
2013-09-26 08:57:00,50.5,50.2,30.07,ESE,122,0.0,0.0,99,0.00,CLR,,0.00,104.0,WeatherDisplay:10.37,2013-09-26 13:57:00,
2013-09-26 09:02:00,50.8,50.5,30.08,ESE,122,0.0,0.0,99,0.00,CLR,,0.00,114.0,WeatherDisplay:10.37,2013-09-26 14:02:00,
2013-09-26 09:07:00,51.3,51.0,30.08,ESE,122,0.0,0.0,99,0.00,CLR,,0.00,93.0,WeatherDisplay:10.37,2013-09-26 14:07:00,
2013-09-26 09:12:00,51.4,51.1,30.08,ESE,122,0.0,0.0,99,0.00,CLR,,0.00,105.0,WeatherDisplay:10.37,2013-09-26 14:12:00,
2013-09-26 09:17:00,52.0,51.7,30.08,ESE,122,0.0,0.0,99,0.00,CLR,,0.00,105.0,WeatherDisplay:10.37,2013-09-26 14:17:00,
2013-09-26 09:22:00,52.5,52.2,30.08,ESE,122,0.0,0.0,99,0.00,SCT,,0.00,109.0,WeatherDisplay:10.37,2013-09-26 14:22:00,
2013-09-26 09:27:00,52.6,52.3,30.08,ESE,122,0.0,0.0,99,0.00,SCT,,0.00,121.0,WeatherDisplay:10.37,2013-09-26 14:27:00,
2013-09-26 09:32:00,52.6,52.3,30.08,ESE,122,0.0,0.0,99,0.00,SCT,,0.00,123.0,WeatherDisplay:10.37,2013-09-26 14:32:00,
2013-09-26 09:37:00,52.8,52.5,30.08,ESE,122,0.0,0.0,99,0.00,SCT,,0.00,114.0,WeatherDisplay:10.37,2013-09-26 14:37:00,
2013-09-26 09:42:00,52.9,52.6,30.08,ESE,123,0.0,0.0,99,0.00,SCT,,0.00,130.0,WeatherDisplay:10.37,2013-09-26 14:42:00,
2013-09-26 09:47:00,53.1,52.8,30.07,East,83,0.1,1.2,99,0.00,SCT,,0.00,130.0,WeatherDisplay:10.37,2013-09-26 14:47:00,
2013-09-26 09:52:00,53.2,52.9,30.07,East,83,0.0,0.0,99,0.00,SCT,,0.00,125.0,WeatherDisplay:10.37,2013-09-26 14:52:00,
2013-09-26 09:57:00,53.3,53.0,30.07,East,83,0.0,0.0,99,0.00,SCT,,0.00,127.0,WeatherDisplay:10.37,2013-09-26 14:57:00,
2013-09-26 10:02:00,53.6,53.3,30.08,East,83,0.0,0.0,99,0.00,CLR,,0.00,135.0,WeatherDisplay:10.37,2013-09-26 15:02:00,
2013-09-26 10:07:00,53.9,53.6,30.08,East,83,0.0,1.1,99,0.00,CLR,,0.00,130.0,WeatherDisplay:10.37,2013-09-26 15:07:00,
2013-09-26 10:12:00,54.1,53.8,30.08,East,83,0.0,0.0,99,0.00,CLR,,0.00,141.0,WeatherDisplay:10.37,2013-09-26 15:12:00,
2013-09-26 10:17:00,54.1,53.8,30.08,East,83,0.0,0.0,99,0.00,CLR,,0.00,156.0,WeatherDisplay:10.37,2013-09-26 15:17:00,
2013-09-26 10:22:00,54.4,54.1,30.08,East,83,0.0,0.0,99,0.00,CLR,,0.00,146.0,WeatherDisplay:10.37,2013-09-26 15:22:00,
2013-09-26 10:27:00,54.7,54.4,30.08,East,83,0.0,0.0,99,0.00,CLR,,0.00,162.0,WeatherDisplay:10.37,2013-09-26 15:27:00,
2013-09-26 10:32:00,55.0,54.7,30.08,East,83,0.0,0.0,99,0.00,CLR,,0.00,172.0,WeatherDisplay:10.37,2013-09-26 15:32:00,
2013-09-26 10:37:00,55.3,55.0,30.08,East,83,0.0,0.0,99,0.00,CLR,,0.00,183.0,WeatherDisplay:10.37,2013-09-26 15:37:00,
2013-09-26 10:42:00,55.6,55.3,30.08,East,86,0.0,0.0,99,0.00,CLR,,0.00,193.0,WeatherDisplay:10.37,2013-09-26 15:42:00,
2013-09-26 10:47:00,55.9,55.6,30.08,South,179,0.5,2.3,99,0.00,CLR,,0.00,209.0,WeatherDisplay:10.37,2013-09-26 15:47:00,
2013-09-26 10:53:00,56.2,55.9,30.08,South,178,0.0,0.0,99,0.00,CLR,,0.00,220.0,WeatherDisplay:10.37,2013-09-26 15:53:00,
2013-09-26 10:58:00,56.3,56.0,30.08,South,186,0.0,3.5,99,0.00,CLR,,0.00,214.0,WeatherDisplay:10.37,2013-09-26 15:58:00,
2013-09-26 11:03:00,56.6,56.3,30.08,South,186,0.0,0.0,99,0.00,CLR,,0.00,190.0,WeatherDisplay:10.37,2013-09-26 16:03:00,
2013-09-26 11:08:00,56.9,56.6,30.08,South,186,0.0,0.0,99,0.00,CLR,,0.00,225.0,WeatherDisplay:10.37,2013-09-26 16:08:00,
2013-09-26 11:13:00,57.0,56.7,30.08,South,186,0.2,1.1,99,0.00,CLR,,0.00,315.0,WeatherDisplay:10.37,2013-09-26 16:13:00,
2013-09-26 11:18:00,57.2,56.9,30.08,South,184,0.1,1.2,99,0.00,CLR,,0.00,322.0,WeatherDisplay:10.37,2013-09-26 16:18:00,
2013-09-26 11:23:00,57.8,57.5,30.08,South,182,0.0,0.0,99,0.00,CLR,,0.00,267.0,WeatherDisplay:10.37,2013-09-26 16:23:00,
2013-09-26 11:28:00,58.6,58.3,30.08,South,182,0.0,1.2,99,0.00,CLR,,0.00,316.0,WeatherDisplay:10.37,2013-09-26 16:28:00,
2013-09-26 11:33:00,59.0,58.7,30.08,East,91,0.0,0.0,99,0.00,CLR,,0.00,244.0,WeatherDisplay:10.37,2013-09-26 16:33:00,
2013-09-26 11:38:00,59.6,58.5,30.08,SSE,159,0.0,1.2,96,0.00,CLR,,0.00,703.0,WeatherDisplay:10.37,2013-09-26 16:38:00,
2013-09-26 11:43:00,60.5,59.1,30.08,South,190,0.0,1.1,95,0.00,CLR,,0.00,696.0,WeatherDisplay:10.37,2013-09-26 16:43:00,
2013-09-26 11:48:00,61.8,57.6,30.07,South,190,0.0,0.0,86,0.00,CLR,,0.00,700.0,WeatherDisplay:10.37,2013-09-26 16:48:00,
2013-09-26 11:53:00,63.1,57.2,30.07,SSW,203,0.6,3.3,81,0.00,CLR,,0.00,700.0,WeatherDisplay:10.37,2013-09-26 16:53:00,
2013-09-26 11:58:00,64.0,57.0,30.07,ENE,70,0.0,1.2,78,0.00,CLR,,0.00,703.0,WeatherDisplay:10.37,2013-09-26 16:58:00,
2013-09-26 12:03:00,64.7,57.0,30.07,SW,217,0.4,4.4,76,0.00,CLR,,0.00,701.0,WeatherDisplay:10.37,2013-09-26 17:03:00,
2013-09-26 12:08:00,66.0,57.1,30.07,ENE,75,0.0,0.0,73,0.00,CLR,,0.00,714.0,WeatherDisplay:10.37,2013-09-26 17:08:00,
2013-09-26 12:13:00,66.3,57.0,30.07,SSW,196,0.4,2.3,72,0.00,CLR,,0.00,717.0,WeatherDisplay:10.37,2013-09-26 17:13:00,
2013-09-26 12:18:00,66.8,57.5,30.07,South,182,0.3,2.3,72,0.00,CLR,,0.00,714.0,WeatherDisplay:10.37,2013-09-26 17:18:00,
2013-09-26 12:23:00,67.4,57.7,30.07,South,182,1.6,5.8,71,0.00,CLR,,0.00,717.0,WeatherDisplay:10.37,2013-09-26 17:23:00,
2013-09-26 12:28:00,67.8,57.3,30.07,SSW,192,0.0,1.2,69,0.00,CLR,,0.00,719.0,WeatherDisplay:10.37,2013-09-26 17:28:00,
2013-09-26 12:33:00,68.6,58.0,30.07,East,86,0.1,2.2,69,0.00,CLR,,0.00,717.0,WeatherDisplay:10.37,2013-09-26 17:33:00,
2013-09-26 12:38:00,68.9,57.5,30.07,NE,55,1.0,4.4,67,0.00,CLR,,0.00,708.0,WeatherDisplay:10.37,2013-09-26 17:38:00,
2013-09-26 12:43:00,69.1,58.5,30.07,SE,146,0.0,0.0,69,0.00,CLR,,0.00,715.0,WeatherDisplay:10.37,2013-09-26 17:43:00,
2013-09-26 12:48:00,68.9,58.3,30.07,SSW,198,0.4,2.3,69,0.00,CLR,,0.00,715.0,WeatherDisplay:10.37,2013-09-26 17:48:00,
2013-09-26 12:53:00,69.3,59.1,30.07,ENE,67,0.0,0.0,70,0.00,CLR,,0.00,717.0,WeatherDisplay:10.37,2013-09-26 17:53:00,
2013-09-26 12:58:00,70.3,58.4,30.07,East,81,0.0,1.1,66,0.00,CLR,,0.00,712.0,WeatherDisplay:10.37,2013-09-26 17:58:00,
2013-09-26 13:03:00,70.8,58.0,30.07,South,184,2.1,6.6,64,0.00,CLR,,0.00,719.0,WeatherDisplay:10.37,2013-09-26 18:03:00,
2013-09-26 13:09:00,71.6,58.3,30.07,South,181,0.0,0.0,63,0.00,CLR,,0.00,717.0,WeatherDisplay:10.37,2013-09-26 18:09:00,
2013-09-26 13:14:00,71.8,58.1,30.07,East,96,0.5,6.9,62,0.00,CLR,,0.00,714.0,WeatherDisplay:10.37,2013-09-26 18:14:00,
2013-09-26 13:19:00,71.3,57.2,30.07,South,184,4.5,9.2,61,0.00,CLR,,0.00,710.0,WeatherDisplay:10.37,2013-09-26 18:19:00,
2013-09-26 13:24:00,71.8,56.7,30.07,South,176,0.0,0.0,59,0.00,CLR,,0.00,715.0,WeatherDisplay:10.37,2013-09-26 18:24:00,
2013-09-26 13:29:00,73.2,57.5,30.07,South,176,0.0,1.2,58,0.00,CLR,,0.00,710.0,WeatherDisplay:10.37,2013-09-26 18:29:00,
2013-09-26 13:34:00,72.7,56.1,30.06,SSE,167,0.7,8.1,56,0.00,CLR,,0.00,707.0,WeatherDisplay:10.37,2013-09-26 18:34:00,
2013-09-26 13:39:00,73.3,56.7,30.06,SE,140,0.0,0.0,56,0.00,CLR,,0.00,701.0,WeatherDisplay:10.37,2013-09-26 18:39:00,
2013-09-26 13:44:00,73.5,55.8,30.06,SSE,157,0.1,2.3,54,0.00,CLR,,0.00,701.0,WeatherDisplay:10.37,2013-09-26 18:44:00,
2013-09-26 13:49:00,74.0,56.3,30.06,SSE,154,0.0,1.2,54,0.00,CLR,,0.00,691.0,WeatherDisplay:10.37,2013-09-26 18:49:00,
2013-09-26 13:54:00,73.7,57.0,30.06,South,180,1.7,6.9,56,0.00,CLR,,0.00,684.0,WeatherDisplay:10.37,2013-09-26 18:54:00,
2013-09-26 13:59:00,73.7,55.0,30.06,SSE,163,0.0,2.3,52,0.00,CLR,,0.00,686.0,WeatherDisplay:10.37,2013-09-26 18:59:00,
2013-09-26 14:04:00,73.9,56.2,30.06,SSE,161,0.0,1.2,54,0.00,CLR,,0.00,675.0,WeatherDisplay:10.37,2013-09-26 19:04:00,
2013-09-26 14:09:00,74.6,56.3,30.06,South,175,0.0,1.2,53,0.00,CLR,,0.00,668.0,WeatherDisplay:10.37,2013-09-26 19:09:00,
2013-09-26 14:14:00,74.0,56.3,30.06,ENE,61,0.9,4.6,54,0.00,CLR,,0.00,668.0,WeatherDisplay:10.37,2013-09-26 19:14:00,
2013-09-26 14:19:00,74.2,55.4,30.06,SE,144,4.4,7.7,52,0.00,CLR,,0.00,654.0,WeatherDisplay:10.37,2013-09-26 19:19:00,
2013-09-26 14:24:00,74.6,55.3,30.06,SSE,153,0.0,5.8,51,0.00,CLR,,0.00,645.0,WeatherDisplay:10.37,2013-09-26 19:24:00,
2013-09-26 14:29:00,74.7,55.9,30.06,SSE,154,1.0,4.6,52,0.00,CLR,,0.00,645.0,WeatherDisplay:10.37,2013-09-26 19:29:00,
2013-09-26 14:34:00,74.4,54.5,30.06,SSE,157,1.8,9.2,50,0.00,CLR,,0.00,638.0,WeatherDisplay:10.37,2013-09-26 19:34:00,
2013-09-26 14:39:00,75.3,55.9,30.06,South,170,0.7,5.8,51,0.00,CLR,,0.00,631.0,WeatherDisplay:10.37,2013-09-26 19:39:00,
2013-09-26 14:44:00,74.7,55.4,30.06,South,180,3.2,7.7,51,0.00,CLR,,0.00,621.0,WeatherDisplay:10.37,2013-09-26 19:44:00,
2013-09-26 14:49:00,74.7,55.4,30.05,SSE,163,2.8,8.8,51,0.00,CLR,,0.00,608.0,WeatherDisplay:10.37,2013-09-26 19:49:00,
2013-09-26 14:54:00,75.4,56.0,30.05,ESE,116,0.9,4.4,51,0.00,CLR,,0.00,598.0,WeatherDisplay:10.37,2013-09-26 19:54:00,
2013-09-26 14:59:00,75.4,56.5,30.05,South,169,0.1,1.2,52,0.00,CLR,,0.00,589.0,WeatherDisplay:10.37,2013-09-26 19:59:00,
2013-09-26 15:04:00,76.0,56.0,30.05,NE,48,0.1,1.2,50,0.00,CLR,,0.00,580.0,WeatherDisplay:10.37,2013-09-26 20:04:00,
2013-09-26 15:09:00,75.3,55.9,30.05,East,94,1.2,6.9,51,0.00,CLR,,0.00,570.0,WeatherDisplay:10.37,2013-09-26 20:09:00,
2013-09-26 15:14:00,75.4,56.0,30.05,SSE,159,0.1,8.1,51,0.00,CLR,,0.00,555.0,WeatherDisplay:10.37,2013-09-26 20:14:00,
2013-09-26 15:19:00,75.1,55.2,30.05,SSE,155,3.5,11.0,50,0.00,CLR,,0.00,545.0,WeatherDisplay:10.37,2013-09-26 20:19:00,
2013-09-26 15:24:00,75.1,55.7,30.05,SSE,157,0.0,0.0,51,0.00,CLR,,0.00,541.0,WeatherDisplay:10.37,2013-09-26 20:24:00,
2013-09-26 15:29:00,76.1,56.1,30.05,SSE,162,0.0,1.2,50,0.00,CLR,,0.00,533.0,WeatherDisplay:10.37,2013-09-26 20:29:00,
2013-09-26 15:34:00,76.5,55.9,30.05,ENE,59,0.1,1.1,49,0.00,CLR,,0.00,522.0,WeatherDisplay:10.37,2013-09-26 20:34:00,
2013-09-26 15:39:00,76.0,56.0,30.05,South,186,2.2,8.1,50,0.00,CLR,,0.00,508.0,WeatherDisplay:10.37,2013-09-26 20:39:00,
2013-09-26 15:44:00,76.7,56.1,30.05,ENE,78,0.0,0.0,49,0.00,CLR,,0.00,501.0,WeatherDisplay:10.37,2013-09-26 20:44:00,
2013-09-26 15:49:00,76.8,56.2,30.05,SE,142,1.8,9.2,49,0.00,CLR,,0.00,485.0,WeatherDisplay:10.37,2013-09-26 20:49:00,
2013-09-26 15:54:00,76.7,55.5,30.05,SE,145,0.0,1.2,48,0.00,CLR,,0.00,469.0,WeatherDisplay:10.37,2013-09-26 20:54:00,
2013-09-26 15:59:00,76.7,56.1,30.05,ENE,69,0.8,4.4,49,0.00,CLR,,0.00,461.0,WeatherDisplay:10.37,2013-09-26 20:59:00,
2013-09-26 16:04:00,76.1,55.5,30.05,NE,53,0.0,4.6,49,0.00,CLR,,0.00,450.0,WeatherDisplay:10.37,2013-09-26 21:04:00,
2013-09-26 16:09:00,76.0,54.9,30.05,SSE,151,3.4,7.7,48,0.00,CLR,,0.00,441.0,WeatherDisplay:10.37,2013-09-26 21:09:00,
2013-09-26 16:14:00,75.8,54.7,30.05,SSW,202,4.3,8.1,48,0.00,CLR,,0.00,434.0,WeatherDisplay:10.37,2013-09-26 21:14:00,
2013-09-26 16:19:00,76.3,55.7,30.05,ESE,121,1.4,4.6,49,0.00,CLR,,0.00,429.0,WeatherDisplay:10.37,2013-09-26 21:19:00,
2013-09-26 16:24:00,76.5,54.8,30.05,South,188,7.5,9.9,47,0.00,CLR,,0.00,410.0,WeatherDisplay:10.37,2013-09-26 21:24:00,
2013-09-26 16:29:00,75.8,54.1,30.05,SSE,151,0.0,0.0,47,0.00,CLR,,0.00,401.0,WeatherDisplay:10.37,2013-09-26 21:29:00,
2013-09-26 16:34:00,76.1,55.0,30.05,SSW,193,0.5,5.5,48,0.00,CLR,,0.00,392.0,WeatherDisplay:10.37,2013-09-26 21:34:00,
2013-09-26 16:39:00,76.0,55.5,30.05,South,180,0.8,4.6,49,0.00,CLR,,0.00,378.0,WeatherDisplay:10.37,2013-09-26 21:39:00,
2013-09-26 16:44:00,75.8,54.7,30.04,South,186,0.0,0.0,48,0.00,CLR,,0.00,364.0,WeatherDisplay:10.37,2013-09-26 21:44:00,
2013-09-26 16:49:00,75.8,54.1,30.04,South,189,0.9,4.6,47,0.00,CLR,,0.00,345.0,WeatherDisplay:10.37,2013-09-26 21:49:00,
2013-09-26 16:54:00,75.6,55.1,30.04,South,173,0.0,0.0,49,0.00,CLR,,0.00,309.0,WeatherDisplay:10.37,2013-09-26 21:54:00,
2013-09-26 16:59:00,75.4,54.9,30.04,South,178,3.4,8.1,49,0.00,CLR,,0.00,301.0,WeatherDisplay:10.37,2013-09-26 21:59:00,
2013-09-26 17:04:00,75.3,55.4,30.04,South,178,0.0,0.0,50,0.00,CLR,,0.00,278.0,WeatherDisplay:10.37,2013-09-26 22:04:00,
2013-09-26 17:09:00,75.1,54.6,30.04,South,187,3.9,9.2,49,0.00,CLR,,0.00,255.0,WeatherDisplay:10.37,2013-09-26 22:09:00,
2013-09-26 17:14:00,74.9,55.6,30.04,South,187,0.0,0.0,51,0.00,CLR,,0.00,236.0,WeatherDisplay:10.37,2013-09-26 22:14:00,
2013-09-26 17:19:00,74.7,55.9,30.04,East,81,0.4,5.8,52,0.00,CLR,,0.00,116.0,WeatherDisplay:10.37,2013-09-26 22:19:00,
2013-09-26 17:25:00,74.4,55.6,30.04,SE,126,0.1,3.5,52,0.00,CLR,,0.00,60.0,WeatherDisplay:10.37,2013-09-26 22:25:00,
2013-09-26 17:30:00,74.0,55.8,30.04,South,178,0.0,1.1,53,0.00,CLR,,0.00,39.0,WeatherDisplay:10.37,2013-09-26 22:30:00,
2013-09-26 17:35:00,73.9,56.2,30.04,South,178,0.0,0.0,54,0.00,CLR,,0.00,35.0,WeatherDisplay:10.37,2013-09-26 22:35:00,
2013-09-26 17:40:00,73.7,56.5,30.04,South,176,0.0,0.0,55,0.00,CLR,,0.00,39.0,WeatherDisplay:10.37,2013-09-26 22:40:00,
2013-09-26 17:45:00,73.3,56.2,30.05,South,170,2.8,7.7,55,0.00,CLR,,0.00,39.0,WeatherDisplay:10.37,2013-09-26 22:45:00,
2013-09-26 17:50:00,73.2,56.6,30.05,South,173,0.0,0.0,56,0.00,CLR,,0.00,49.0,WeatherDisplay:10.37,2013-09-26 22:50:00,
2013-09-26 17:55:00,73.0,56.4,30.05,South,172,0.0,0.0,56,0.00,CLR,,0.00,28.0,WeatherDisplay:10.37,2013-09-26 22:55:00,
2013-09-26 18:00:00,72.8,56.7,30.04,SSE,168,0.0,0.0,57,0.00,CLR,,0.00,26.0,WeatherDisplay:10.37,2013-09-26 23:00:00,
2013-09-26 18:05:00,72.5,56.9,30.04,SSE,168,0.0,0.0,58,0.00,CLR,,0.00,25.0,WeatherDisplay:10.37,2013-09-26 23:05:00,
2013-09-26 18:10:00,72.1,56.5,30.04,South,171,0.0,0.0,58,0.00,CLR,,0.00,21.0,WeatherDisplay:10.37,2013-09-26 23:10:00,
2013-09-26 18:15:00,71.8,56.7,30.04,ENE,74,0.2,3.5,59,0.00,CLR,,0.00,19.0,WeatherDisplay:10.37,2013-09-26 23:15:00,
2013-09-26 18:20:00,71.6,56.5,30.04,ENE,74,0.0,0.0,59,0.00,CLR,,0.00,18.0,WeatherDisplay:10.37,2013-09-26 23:20:00,
2013-09-26 18:25:00,71.1,56.5,30.04,ENE,74,0.0,0.0,60,0.00,CLR,,0.00,16.0,WeatherDisplay:10.37,2013-09-26 23:25:00,
2013-09-26 18:30:00,70.9,56.3,30.04,SSE,148,0.0,0.0,60,0.00,CLR,,0.00,12.0,WeatherDisplay:10.37,2013-09-26 23:30:00,
2013-09-26 18:35:00,70.6,56.5,30.04,SSE,148,0.0,0.0,61,0.00,CLR,,0.00,11.0,WeatherDisplay:10.37,2013-09-26 23:35:00,
2013-09-26 18:40:00,70.3,56.7,30.04,SSE,148,0.0,0.0,62,0.00,CLR,,0.00,7.0,WeatherDisplay:10.37,2013-09-26 23:40:00,
2013-09-26 18:45:00,69.9,56.3,30.04,SSE,148,0.0,0.0,62,0.00,CLR,,0.00,5.0,WeatherDisplay:10.37,2013-09-26 23:45:00,
2013-09-26 18:50:00,69.6,56.0,30.04,SSE,148,0.0,0.0,62,0.00,CLR,,0.00,0.0,WeatherDisplay:10.37,2013-09-26 23:50:00,
2013-09-26 18:55:00,69.3,56.2,30.04,SSE,148,0.0,0.0,63,0.00,CLR,,0.00,0.0,WeatherDisplay:10.37,2013-09-26 23:55:00,
2013-09-26 19:00:00,69.1,56.0,30.04,SSE,148,0.0,0.0,63,0.00,CLR,,0.00,0.0,WeatherDisplay:10.37,2013-09-27 00:00:00,
2013-09-26 19:05:00,68.6,55.9,30.04,SSE,148,0.0,0.0,64,0.00,CLR,,0.00,0.0,WeatherDisplay:10.37,2013-09-27 00:05:00,
2013-09-26 19:10:00,68.3,56.1,30.04,SSE,148,0.0,0.0,65,0.00,CLR,,0.00,0.0,WeatherDisplay:10.37,2013-09-27 00:10:00,
2013-09-26 19:15:00,67.8,56.0,30.04,SSE,148,0.0,0.0,66,0.00,CLR,,0.00,0.0,WeatherDisplay:10.37,2013-09-27 00:15:00,
2013-09-26 19:20:00,67.3,56.0,30.04,SSE,148,0.0,0.0,67,0.00,CLR,,0.00,0.0,WeatherDisplay:10.37,2013-09-27 00:20:00,
2013-09-26 19:25:00,66.8,55.9,30.04,SSE,148,0.0,0.0,68,0.00,CLR,,0.00,0.0,WeatherDisplay:10.37,2013-09-27 00:25:00,
2013-09-26 19:30:00,66.4,55.5,30.04,SSE,148,0.0,0.0,68,0.00,CLR,,0.00,0.0,WeatherDisplay:10.37,2013-09-27 00:30:00,
2013-09-26 19:35:00,66.1,55.6,30.04,SSE,148,0.0,0.0,69,0.00,CLR,,0.00,0.0,WeatherDisplay:10.37,2013-09-27 00:35:00,
2013-09-26 19:40:00,65.6,55.5,30.04,SSE,148,0.0,0.0,70,0.00,CLR,,0.00,0.0,WeatherDisplay:10.37,2013-09-27 00:40:00,
2013-09-26 19:45:00,65.2,55.6,30.05,SSE,148,0.0,0.0,71,0.00,CLR,,0.00,0.0,WeatherDisplay:10.37,2013-09-27 00:45:00,
2013-09-26 19:50:00,64.8,55.6,30.05,SSE,148,0.0,0.0,72,0.00,CLR,,0.00,0.0,WeatherDisplay:10.37,2013-09-27 00:50:00,
2013-09-26 19:55:00,64.5,55.3,30.05,SSE,148,0.0,0.0,72,0.00,CLR,,0.00,0.0,WeatherDisplay:10.37,2013-09-27 00:55:00,
2013-09-26 20:00:00,64.2,55.0,30.05,SSE,148,0.0,0.0,72,0.00,CLR,,0.00,0.0,WeatherDisplay:10.37,2013-09-27 01:00:00,
2013-09-26 20:05:00,64.0,54.8,30.05,SSE,148,0.0,0.0,72,0.00,CLR,,0.00,0.0,WeatherDisplay:10.37,2013-09-27 01:05:00,
2013-09-26 20:10:00,63.9,54.7,30.05,SSE,148,0.0,0.0,72,0.00,CLR,,0.00,0.0,WeatherDisplay:10.37,2013-09-27 01:10:00,
2013-09-26 20:15:00,63.7,54.9,30.05,SSE,148,0.0,0.0,73,0.00,CLR,,0.00,0.0,WeatherDisplay:10.37,2013-09-27 01:15:00,
2013-09-26 20:20:00,63.5,54.7,30.05,SSE,148,0.0,0.0,73,0.00,CLR,,0.00,0.0,WeatherDisplay:10.37,2013-09-27 01:20:00,
2013-09-26 20:25:00,63.4,54.6,30.05,SSE,148,0.0,0.0,73,0.00,CLR,,0.00,0.0,WeatherDisplay:10.37,2013-09-27 01:25:00,
2013-09-26 20:30:00,63.1,54.3,30.05,SSE,148,0.0,0.0,73,0.00,CLR,,0.00,0.0,WeatherDisplay:10.37,2013-09-27 01:30:00,
2013-09-26 20:35:00,62.9,54.1,30.05,SSE,148,0.0,0.0,73,0.00,CLR,,0.00,0.0,WeatherDisplay:10.37,2013-09-27 01:35:00,
2013-09-26 20:40:00,62.7,54.3,30.05,SSE,148,0.0,0.0,74,0.00,CLR,,0.00,0.0,WeatherDisplay:10.37,2013-09-27 01:40:00,
2013-09-26 20:45:00,62.4,54.0,30.05,SSE,148,0.0,0.0,74,0.00,CLR,,0.00,0.0,WeatherDisplay:10.37,2013-09-27 01:45:00,
2013-09-26 20:50:00,62.3,54.3,30.05,SSE,148,0.0,0.0,75,0.00,CLR,,0.00,0.0,WeatherDisplay:10.37,2013-09-27 01:50:00,
2013-09-26 20:55:00,62.0,54.3,30.05,SSE,148,0.0,0.0,76,0.00,CLR,,0.00,0.0,WeatherDisplay:10.37,2013-09-27 01:55:00,
2013-09-26 21:00:00,61.8,54.2,30.05,SSE,148,0.0,0.0,76,0.00,CLR,,0.00,0.0,WeatherDisplay:10.37,2013-09-27 02:00:00,
2013-09-26 21:05:00,61.6,54.3,30.05,SSE,148,0.0,0.0,77,0.00,CLR,,0.00,0.0,WeatherDisplay:10.37,2013-09-27 02:05:00,
2013-09-26 21:10:00,61.3,54.0,30.05,SSE,148,0.0,0.0,77,0.00,CLR,,0.00,0.0,WeatherDisplay:10.37,2013-09-27 02:10:00,
2013-09-26 21:15:00,61.2,53.9,30.05,SSE,148,0.0,0.0,77,0.00,CLR,,0.00,0.0,WeatherDisplay:10.37,2013-09-27 02:15:00,
2013-09-26 21:20:00,61.0,53.7,30.05,SSE,148,0.0,0.0,77,0.00,CLR,,0.00,0.0,WeatherDisplay:10.37,2013-09-27 02:20:00,
2013-09-26 21:25:00,60.9,54.0,30.05,SSE,148,0.0,0.0,78,0.00,CLR,,0.00,0.0,WeatherDisplay:10.37,2013-09-27 02:25:00,
2013-09-26 21:30:00,60.7,53.8,30.06,SSE,148,0.0,0.0,78,0.00,CLR,,0.00,0.0,WeatherDisplay:10.37,2013-09-27 02:30:00,
2013-09-26 21:35:00,60.5,53.6,30.06,SSE,148,0.0,0.0,78,0.00,CLR,,0.00,0.0,WeatherDisplay:10.37,2013-09-27 02:35:00,
2013-09-26 21:40:00,60.4,53.5,30.06,SE,138,0.0,0.0,78,0.00,CLR,,0.00,0.0,WeatherDisplay:10.37,2013-09-27 02:40:00,
2013-09-26 21:45:00,60.4,53.5,30.06,SE,138,0.0,0.0,78,0.00,CLR,,0.00,0.0,WeatherDisplay:10.37,2013-09-27 02:45:00,
2013-09-26 21:50:00,60.4,53.2,30.06,SE,138,0.0,1.1,77,0.00,CLR,,0.00,0.0,WeatherDisplay:10.37,2013-09-27 02:50:00,
2013-09-26 21:55:00,60.4,53.2,30.06,SE,138,0.0,0.0,77,0.00,CLR,,0.00,0.0,WeatherDisplay:10.37,2013-09-27 02:55:00,
2013-09-26 22:00:00,60.4,53.2,30.06,SE,138,0.0,0.0,77,0.00,CLR,,0.00,0.0,WeatherDisplay:10.37,2013-09-27 03:00:00,
2013-09-26 22:05:00,60.4,52.8,30.06,ESE,105,0.0,0.0,76,0.00,CLR,,0.00,0.0,WeatherDisplay:10.37,2013-09-27 03:05:00,
2013-09-26 22:10:00,60.4,52.8,30.06,East,94,0.0,0.0,76,0.00,CLR,,0.00,0.0,WeatherDisplay:10.37,2013-09-27 03:10:00,
2013-09-26 22:15:00,60.4,52.8,30.07,ESE,109,0.0,6.9,76,0.00,CLR,,0.00,0.0,WeatherDisplay:10.37,2013-09-27 03:15:00,
2013-09-26 22:20:00,60.4,52.8,30.07,SSE,153,0.0,0.0,76,0.00,CLR,,0.00,0.0,WeatherDisplay:10.37,2013-09-27 03:20:00,
2013-09-26 22:25:00,60.2,52.2,30.07,ESE,115,0.0,0.0,75,0.00,CLR,,0.00,0.0,WeatherDisplay:10.37,2013-09-27 03:25:00,
2013-09-26 22:30:00,60.2,52.2,30.07,ENE,72,0.0,0.0,75,0.00,CLR,,0.00,0.0,WeatherDisplay:10.37,2013-09-27 03:30:00,
2013-09-26 22:35:00,60.2,52.2,30.07,NE,38,0.0,1.1,75,0.00,CLR,,0.00,0.0,WeatherDisplay:10.37,2013-09-27 03:35:00,
2013-09-26 22:40:00,60.2,51.9,30.07,NE,38,0.0,1.2,74,0.00,CLR,,0.00,0.0,WeatherDisplay:10.37,2013-09-27 03:40:00,
2013-09-26 22:45:00,60.2,51.9,30.07,SSE,163,0.0,1.2,74,0.00,CLR,,0.00,0.0,WeatherDisplay:10.37,2013-09-27 03:45:00,
2013-09-26 22:50:00,60.2,51.5,30.07,SSE,162,0.0,0.0,73,0.00,CLR,,0.00,0.0,WeatherDisplay:10.37,2013-09-27 03:50:00,
2013-09-26 22:55:00,60.1,51.4,30.07,ESE,111,0.0,0.0,73,0.00,CLR,,0.00,0.0,WeatherDisplay:10.37,2013-09-27 03:55:00,
2013-09-26 23:00:00,60.1,51.4,30.07,SE,145,0.0,1.2,73,0.00,CLR,,0.00,0.0,WeatherDisplay:10.37,2013-09-27 04:00:00,
2013-09-26 23:01:00,60.1,51.4,30.07,SE,145,0.0,1.2,73,0.00,CLR,,0.00,0.0,WeatherDisplay:10.37,2013-09-27 04:01:00,
2013-09-26 23:02:00,59.9,51.2,30.07,ENE,76,0.0,0.0,73,0.00,CLR,,0.00,0.0,WeatherDisplay:10.37,2013-09-27 04:02:00,
2013-09-26 23:03:00,59.9,51.2,30.07,ENE,71,0.0,0.0,73,0.00,CLR,,0.00,0.0,WeatherDisplay:10.37,2013-09-27 04:03:00,
2013-09-26 23:08:00,59.9,51.2,30.07,South,191,0.0,0.0,73,0.00,CLR,,0.00,0.0,WeatherDisplay:10.37,2013-09-27 04:08:00,
2013-09-26 23:13:00,59.8,50.8,30.07,North,355,0.0,1.2,72,0.00,CLR,,0.00,0.0,WeatherDisplay:10.37,2013-09-27 04:13:00,
2013-09-26 23:18:00,59.6,50.6,30.07,ESE,109,0.0,0.0,72,0.00,CLR,,0.00,0.0,WeatherDisplay:10.37,2013-09-27 04:18:00,
2013-09-26 23:23:00,59.5,50.5,30.07,South,186,0.0,0.0,72,0.00,CLR,,0.00,0.0,WeatherDisplay:10.37,2013-09-27 04:23:00,
2013-09-26 23:28:00,59.3,50.3,30.07,SE,144,0.0,0.0,72,0.00,CLR,,0.00,0.0,WeatherDisplay:10.37,2013-09-27 04:28:00,
2013-09-26 23:33:00,59.3,50.3,30.07,SE,144,0.0,0.0,72,0.00,CLR,,0.00,0.0,WeatherDisplay:10.37,2013-09-27 04:33:00,
2013-09-26 23:38:00,59.2,50.2,30.07,North,9,0.0,0.0,72,0.00,CLR,,0.00,0.0,WeatherDisplay:10.37,2013-09-27 04:38:00,
2013-09-26 23:43:00,59.0,50.0,30.07,North,5,0.0,0.0,72,0.00,CLR,,0.00,0.0,WeatherDisplay:10.37,2013-09-27 04:43:00,
2013-09-26 23:48:00,58.9,50.3,30.08,NNE,31,0.0,0.0,73,0.00,CLR,,0.00,0.0,WeatherDisplay:10.37,2013-09-27 04:48:00,
2013-09-26 23:53:00,58.6,50.0,30.08,NNE,31,0.0,0.0,73,0.00,CLR,,0.00,0.0,WeatherDisplay:10.37,2013-09-27 04:53:00,
2013-09-26 23:58:00,58.4,49.8,30.08,NNE,31,0.0,1.1,73,0.00,CLR,,0.00,0.0,WeatherDisplay:10.37,2013-09-27 04:58:00,